Regional Weather Roundup
Issued by NWS Grand Forks, ND

Home | Current Version | Previous Version | Graphics & Text | Print | Product List | Glossary On
Versions: 1 2 3 4 5 6 7 8 9 10 11 12 13 14 15 16 17 18 19 20 21 22 23 24 25 26 27 28 29 30 31 32 33 34 35 36 37 38 39 40 41 42 43 44 45 46 47 48 49 50
000
ASUS43 KFGF 300731
RWRFGF
PRAIRIE TO PINES  WEATHER ROUNDUP
NATIONAL WEATHER SERVICE EASTERN NORTH DAKOTA/GRAND FORKS ND
200 AM CDT SUN APR 30 2017

 **SATELLITE DATA USED TO AUGMENT SKY COVER AT AUTOMATED STATIONS**
 *****  WEATHER ACROSS EASTERN NORTH DAKOTA  *****

CITY           SKY/WX    TMP DP  RH WIND       PRES   REMARKS
GRAND FORKS    FAIR      42  33  70 S5        30.19
GRAND FRKS AFB FAIR      39  32  74 S7        30.19S
DEVILS LAKE    FAIR      45  28  51 S9        30.18S
FARGO          FAIR      39  29  67 CALM      30.19S
WAHPETON ARPT  FAIR      45  28  53 E6        30.17F
$$

 ***** WEATHER ACROSS CENTRAL AND WESTERN NORTH DAKOTA  *****

CITY           SKY/WX    TMP DP  RH WIND       PRES   REMARKS
BISMARCK       FAIR      36  25  64 SE7       30.18S
MINOT          FAIR      49  21  33 S15       30.12S
JAMESTOWN      FAIR      41  29  62 S5        30.18F
MINOT AFB      FAIR      44  26  49 S13       30.10F
GARRISON         N/A     37  23  56 SW5       30.14S
WILLISTON      FAIR      40  33  76 S3        30.09F
DICKINSON      FAIR      31  19  61 S8        30.12F WCI  23
HETTINGER      FAIR      33  21  61 SE3       30.16F
$$

 *****  OTHER AIRPORT OBSERVATIONS IN OUR AREA  *****

CITY           SKY/WX    TMP DP  RH WIND       PRES   REMARKS
WALHALLA       NOT AVBL
GRAFTON AIRPOR FAIR      37  32  81 S7        30.19F
VALLEY CITY AR FAIR      39  25  56 CALM      30.19F
CANDO          NOT AVBL
CAVALIER APRT  FAIR      39  32  75 S8        30.17F
GWINNER        SUNNY     41  32  70 MISG      30.16F
SHEYENNE NWR     N/A     41  25  52 N2        29.95S
ROLLA          PTSUNNY   39  27  60 S8        30.15F
 ***** THE ABOVE OBSERVATIONS ARE NON NWS ARE NOT QUALITY
       CONTROLLED AND MAY MIS-REPORT RAIN FOR SNOW...
$$

  *****  WEATHER ACROSS NORTHERN MINNESOTA  *****

CITY           SKY/WX    TMP DP  RH WIND       PRES   REMARKS
FLAG ISLAND    FAIR      41  27  56 SE5       30.21F
WARROAD        FAIR      41  27  56 SE6       30.21F
ROSEAU         FAIR      41  27  56 SE3       30.21S
HALLOCK        FAIR      39  28  65 SE9       30.18F
THF RVR FALLS  FAIR      43  25  49 SE5       30.22S
BAUDETTE       FAIR      38  20  48 SE7       30.23S
WASKISH        FAIR      41  27  56 CALM      30.23S
CROOKSTON      FAIR      39  32  75 SE6       30.20F
STEPHEN NDAWN    N/A     41  28  60 SE5         N/A
GREENBUSH NDAW   N/A     39  32  75 E3          N/A
$$
  *****  WEATHER ACROSS CENTRAL AND WEST MINNESOTA  *****

CITY           SKY/WX    TMP DP  RH WIND       PRES   REMARKS
FOSSTON        FAIR      39  28  65 SE8       30.21S
BEMIDJI        FAIR      39  24  53 E5        30.22F
PARK RAPIDS    FAIR      43  17  35 SE8       30.20F
ELBOW LAKE     FAIR      44  25  48 NE8       30.16F
WADENA         FAIR      39  19  45 E5        30.18F
DETROIT LAKES  FAIR      45  27  49 SE6       30.20F
MOORHEAD       FAIR      41  28  60 CALM      30.19F
FERGUS FALLS   FAIR      46  21  36 E7        30.16F
MORRIS MN      FAIR      45  25  45 NE8       30.14F
STAPLES        FAIR      39  19  45 E7        30.20S
$$
  *****  WEATHER ELSEWHERE ACROSS MINNESOTA  *****

CITY           SKY/WX    TMP DP  RH WIND       PRES   REMARKS
DULUTH         FAIR      35  16  45 NE6       30.24F
INTRNTL FALLS  FAIR      35  21  56 SE3       30.25F
ELY            FAIR      28  23  80 CALM      30.27F
CLOQUET        FAIR      37  12  35 NE9       30.22F
WHEATON        FAIR      39  27  60 E5        30.18F
BRAINERD       FAIR      40  21  46 E7        30.21F
HIBBING        FAIR      30  23  75 CALM      30.26F
ALEXANDRIA     FAIR      43  22  43 E12       30.17F
SAINT CLOUD    FAIR      42  25  50 NE10      30.17F
MINNEAPOLIS    CLOUDY    46  25  43 NE16      30.14F
$$

  *****  WEATHER ACROSS SOUTH DAKOTA  *****

CITY           SKY/WX    TMP DP  RH WIND       PRES   REMARKS
SIOUX FALLS    CLOUDY    46  28  49 NE12      30.09F
BROOKINGS      CLOUDY    44  23  43 NE8       30.11F
WATERTOWN      FAIR      42  23  46 E6        30.13F
HURON          FAIR      39  30  70 NW5       30.13F
SISSETON         N/A     42  30  62 S8        30.14F
ABERDEEN       FAIR      36  27  69 N6        30.17F
MITCHELL       MOCLDY    45  29  53 NE8       30.11F
PIERRE         FAIR      36  23  59 N7        30.15F
MOBRIDGE       FAIR      41  23  48 SE5       30.16F
RAPID CITY     FAIR      31  20  63 NW6       30.15F
$$

  *****  SOME WEATHER IN NEARBY STATES *****

CITY           SKY/WX    TMP DP  RH WIND       PRES   REMARKS
GLASGOW MT     CLOUDY    43  36  76 SE8       30.02F
GREAT FALLS MT FAIR      39  28  64 SW10      29.98F
CHEYENNE WY    FAIR      27  15  61 NW14G21   30.11F WCI  16
SCOTTSBLUFF NE FAIR      36  25  64 N14       30.13F
OMAHA NE       LGT RAIN  40  36  86 N17       29.94F FOG
DES MOINES IA  DRIZZLE   41  38  89 NE17G23   29.90F
DAVENPORT IA   CLOUDY    42  40  92 NE15      29.94S
CHICAGO IL     LGT RAIN  43  41  93 NE15      29.96F FOG
EAU CLAIRE WI  CLOUDY    45  26  47 NE12      30.14F
LA CROSSE WI   CLOUDY    47  27  45 NE6G17    30.11F
$$

  *****  SOME NATIONAL WEATHER *****

CITY           SKY/WX    TMP DP  RH WIND       PRES   REMARKS
LA GUARDIA NY  CLOUDY    66  46  48 NW8       30.13R
RALEIGH NC     MOCLDY    73  70  90 SW8       30.16S
ATLANTA GA     MOCLDY    73  67  81 SE10      30.08F
NEW ORLEANS LA CLOUDY    79  73  82 SE29G39   29.80F
OKLAHOMA CITY  CLOUDY    47  46  97 NW7       29.66R
ALBUQUERQUE NM CLOUDY    36  35  96 S6        30.08S
SALT LAKE CITY FAIR      44  28  53 S8        30.20F
LOS ANGELES CA FAIR      63  45  51 S5        30.05R
BOISE ID       CLOUDY    50  32  50 SE8       30.13F
SEATTLE WA     LGT RAIN  49  49 100 S14       30.11R FOG
$$

*** WEATHER ACROSS MANITOBA...SASKATCHEWAN AND ONTARIO ***
                ***ONTARIO***

CITY           SKY/WX    TMP DP  RH WIND       PRES   REMARKS
GERALDTON      PTCLDY    25  19  80 CALM      30.37S
THUNDER BAY    MOCLDY    27  25  93 W5        30.32F WCI  21
SIOUX LOOKOUT  MOCLDY    32  18  55 S3        30.27F
TORONTO        CLOUDY    45  30  57 NE8G17    30.21F
BIG TROUT LK   PTCLDY    28  21  74 S5        30.27R WCI  23
PICKLE LAKE    NOT AVBL
DRYDEN         MOCLDY    37  18  44 S12       30.24F
KENORA         PTCLDY    39  18  41 S6        30.22F
$$
                *** MANITOBA***

CITY           SKY/WX    TMP DP  RH WIND       PRES   REMARKS
BRANDON        PTCLDY    34  27  75 N5        30.11F
DAUPHIN        CLEAR     34  25  69 N3        30.10S
ISLAND LAKE    PTCLDY    36  25  64 E5        30.13F
PILOT MOUND      N/A     41  28  60 S14         N/A
THE PAS        CLOUDY    36  32  87 CALM      30.06F
THOMPSON       PTCLDY    36  23  60 NE5       30.12F
WINNIPEG       MOCLDY    45  25  45 S14       30.16F
LYNN LAKE      CLEAR     32  23  69 S3        30.07S
CHURCHILL      CLOUDY    21  18  86 S12       30.15F WCI   9
GILLAM         PTCLDY    28  14  54 S6        30.18  WCI  22
$$
                ***SASKATCHEWAN***

CITY           SKY/WX    TMP DP  RH WIND       PRES   REMARKS
ESTEVAN        PTCLDY    41  34  75 S8        30.07F
KINDERSLEY     PTCLDY    34  32  93 SE8       29.91F
LLOYDMINSTER   CLEAR     37  36  93 S7        29.89F
PRINCE ALBERT  PTCLDY    32  30  93 E7        30.01F
REGINA         CLOUDY    43  41  93 SE5       30.02F
YORKTON        CLOUDY    34  30  86 SE2       30.05S
N. BATTLEFORD  CLOUDY    41  28  60 SE8       29.95F
LA RONGE       CLEAR     34  25  69 SE9       30.02F
SASKATOON      PTCLDY    41  32  70 S2        29.98F
SWIFT CURRENT  CLOUDY    43  37  81 SW17G23   29.94F
$$
NOTE: THESE ARE AUTOMATED STATIONS WITH LIMITED QUALITY CONTROL
      "FAIR" INDICATES FEW OR NO CLOUDS BELOW 12,000 FEET WITH NO
      SIGNIFICANT WEATHER AND/OR OBSTRUCTIONS TO VISIBILITY.
      SKY/WX - SKY CONDITION AND SIGNIFICANT WEATHER.
      TMP - AIR TEMPERATURE.    DP   - DEWPOINT TEMPERATURE.
      RH  - RELATIVE HUMIDITY.  PRES - PRESSURE.
      HX  - HEAT INDEX.         WCI  - WIND CHILL INDEX.
$




USA.gov is the U.S. government's official web portal to all federal, state and local government web resources and services.